SCP
0 0 0 0 0 0 0 0 0 0 0 0 0 0 0 0 0 0 0 0 0 0 0 0 0 0 0 0 0 0 0 0 0 0 0 0 0 0 0 0 0 0 0
0 0 0 0 0 0 0 0 0 0 0 0 0 0 0 0 0 0 0 0 0 0 0 0 0 0 0 0 0 0 0 0 0 0 0 0 0 0 0 0 0 0 0
0 0 0 0 0 0 0 0 0 0 0 0 0 0 0 0 0 0 0 0 0 0 0 0 0 0 0 0 0 0 0 0 0 0 0 0 0 0 0 0 0 0 0
0 0 0 0 0 0 0 0 0 0 0 0 0 0 0 0 0 0 0 0 0 0 0 0 0 0 0 0 0 0 0 0 0 0 0 0 0 0 0 0 0 0 0
0 0 0 0 0 0 0 0 0 0 0 0 0 0 0 0 0 0 0 0 0 0 0 0 0 0 0 0 0 0 0 0 0 0 0 0 0 0 0 0 0 0 0
0 0 0 0 0 0 0 0 0 0 0 0 0 0 0 0 0 0 0 0 0 0 0 0 0 0 0 0 0 0 0 0 0 0 0 0 0 0 0 0 0 0 0
0 0 0 0 0 0 0 0 0 0 0 0 0 0 0 0 0 0 0 0 0 0 0 0 0 0 0 0 0 0 0 0 0 0 0 0 0 0 0 0 0 0 0
0 0 0 0 0 0 0 0 0 0 0 0 0 0 0 0 0 0 0 0 0 0 0 0 0 0 0 0 0 0 0 0 0 0 0 0 0 0 0 0 0 0 0
0 0 0 0 0 0 0 0 0 0 0 0 0 0 0 0 0 0 0 0 0 0 0 0 0 0 0 0 0 0 0 0 0 0 0 0 0 0 0 0 0 0 0
0 0 0 0 0 0 0 0 0 0 0 0 0 0 0 0 0 0 0 0 0 0 0 0 0 0 0 0 0 0 0 0 0 0 0 0 0 0 0 0 0 0 0
0 0 0 0 0 0 0 0 0 0 0 0 0 0 0 0 0 0 0 0 0 0 0 0 0 0 0 0 0 0 0 0 0 0 0 0 0 0 0 0 0 0 0
0 0 0 0 0 0 0 0 0 0 0 0 0 0 0 0 0 0 0 0 0 0 0 0 0 0 0 0 0 0 0 0 0 0 0 0 0 0 0 0 0 0 0
0 0 0 0 0 0 0 0 0 0 0 0 0 0 0 0 0 0 0 0 0 0 0 0 0 0 0 0 0 0 0 0 0 0 0 0 0 0 0 0 0 0 0
0 0 0 0 0 0 0 0 0 0 0 0 0 0 0 0 0 0 0 0 0 0 0 0 0 0 0 0 0 0 0 0 0 0 0 0 0 0 0 0 0 0 0
0 0 0 0 0 0 0 0 0 0 0 0 0 0 0 0 0 0 0 0 0 0 0 0 0 0 0 0 0 0 0 0 0 0 0 0 0 0 0 0 0 0 0
0 0 0 0 0 0 0 0 0 0 0 0 0 0 0 0 0 0 0 0 0 0 0 0 0 0 0 0 0 0 0 0 0 0 0 0 0 0 0 0 0 0 0
0 0 0 0 0 0 0 0 0 0 0 0 0 0 0 0 0 0 0 0 0 0 0 0 0 0 0 0 0 0 0 0 0 0 0 0 0 0 0 0 0 0 0
0 0 0 0 0 0 0 0 0 0 0 0 0 0 0 0 0 0 0 0 0 0 0 0 0 0 0 0 0 0 0 0 0 0 0 0 0 0 0 0 0 0 0
0 0 0 0 0 0 0 0 0 0 0 0 0 0 0 0 0 0 0 0 0 0 0 0 0 0 0 0 0 0 0 0 0 0 0 0 0 0 0 0 0 0 0
0 0 0 0 0 0 0 0 0 0 0 0 0 0 0 0 0 0 0 0 0 0 0 0 0 0 0 0 0 0 0 0 0 0 0 0 0 0 0 0 0 0 0
0 0 0 0 0 0 0 0 0 0 0 0 0 0 0 0 0 0 0 0 0 0 0 0 0 0 0 0 0 0 0 0 0 0 0 0 0 0 0 0 0 0 0
0 0 0 0 0 0 0 0 0 0 0 0 0 0 0 0 0 0 0 0 0 0 0 0 0 0 0 0 0 0 0 0 0 0 0 0 0 0 0 0 0 0 0
0 0 0 0 0 0 0 0 0 0 0 0 0 0 0 0 0 0 0 0 0 0 0 0 0 0 0 0 0 0 0 0 0 0 0 0 0 0 0 0 0 0 0
0 0 0 0 0 0 0 0 0 0 0 0 0 0 0 0 0 0 0 0 0 0 0 0 0 0 0 0 0 0 0 0 0 0 0 0 0 0 0 -0 -0 -0 -0
0 0 0 0 0 0 0 0 0 0 0 0 0 0 0 0 0 0 0 0 0 0 0 0 0 0 0 0 0 0 0 0 0 -0 0 -0 -0 -0 -0 -0 -0 -0 -0
0 0 0 0 0 0 0 0 0 0 0 0 0 0 0 0 0 0 0 0 0 0 0 0 0 0 0 0 0 0 0 -0 -0 -0 0 0 -0 -0 -0 -0 -0 -0 -0
Wind_Speed_500mb
86 84 83 80 73 66 62 57 54 51 48 45 43 41 39 37 34 31 28 25 24 21 19 18 18 17 19 22 24 26 29 33 42 51 52 54 61 65 69 70 73 76 78
87 84 83 80 75 71 66 61 58 55 49 45 45 43 40 38 35 32 29 26 24 22 21 20 20 22 24 25 28 31 34 37 44 56 60 63 67 70 73 74 74 75 79
86 83 82 81 79 75 69 64 60 55 51 49 46 43 41 39 36 33 30 27 25 24 24 24 24 27 28 31 34 37 40 45 49 57 66 66 66 65 72 75 76 78 83
86 84 83 82 79 75 70 66 62 55 52 48 45 43 42 38 36 34 31 29 28 27 27 27 30 33 35 37 39 42 45 49 53 57 62 66 67 67 69 78 87 83 84
86 85 82 78 75 72 70 66 61 55 51 47 45 45 41 40 38 34 32 31 31 31 32 33 35 35 37 39 41 43 46 49 51 55 61 65 66 65 72 76 83 89 93
86 84 78 74 74 72 68 65 60 55 52 50 47 44 43 40 37 34 34 34 35 34 35 34 35 37 38 38 41 42 44 46 50 51 56 59 68 56 58 64 77 94 109
83 79 77 74 72 69 65 61 59 56 54 52 49 46 43 40 37 36 38 36 33 32 32 33 35 36 37 39 41 44 47 47 46 45 51 46 47 56 74 89 90 95 111
79 78 78 75 72 69 65 62 61 57 52 49 49 45 41 37 39 36 32 30 30 30 30 32 33 35 37 40 45 49 50 52 52 50 55 63 65 64 68 80 92 102 109
75 75 77 76 75 73 70 66 61 56 53 51 46 43 39 36 35 32 27 26 26 25 27 29 32 35 37 42 46 50 55 60 62 65 64 59 68 67 73 85 90 87 96
72 73 74 73 73 73 69 64 59 54 52 48 46 40 38 33 28 25 20 18 19 21 26 31 36 41 41 41 42 48 63 70 71 69 78 82 81 85 77 69 68 73 77
69 70 68 67 67 66 63 58 56 54 50 47 43 39 32 26 17 14 12 12 18 23 30 38 42 43 44 36 37 51 62 59 71 78 83 88 85 80 75 68 63 64 77
58 60 61 61 61 60 59 57 52 50 48 45 40 36 29 22 15 9 9 13 22 32 40 44 46 43 40 44 48 54 55 58 72 82 84 83 79 75 74 73 75 76 73
54 55 56 57 57 55 55 56 54 50 47 44 38 32 26 19 13 11 13 22 31 34 43 44 41 42 44 52 63 45 58 74 75 75 76 75 73 73 74 79 78 76 79
60 61 61 62 62 59 55 53 50 47 43 38 32 24 15 7 7 15 24 32 38 45 51 56 61 57 68 63 67 67 66 67 67 67 69 70 70 73 75 71 76 80 85
66 67 67 65 63 61 55 50 46 41 31 26 19 11 3 8 12 23 29 36 40 43 48 62 68 68 68 69 68 67 66 64 64 61 62 65 68 69 70 71 74 79 81
71 72 71 71 68 64 59 55 41 34 25 15 6 4 10 19 27 32 34 34 34 33 51 59 62 64 66 66 66 65 62 60 58 59 61 62 64 66 70 72 72 74 79
69 71 69 65 61 55 47 40 34 25 12 2 7 13 20 27 33 36 30 30 43 51 55 58 58 59 59 59 59 59 61 58 58 56 56 58 59 63 65 71 76 77 81
65 65 61 56 50 44 36 27 18 10 3 5 13 20 26 30 32 26 26 49 48 49 52 54 54 54 54 54 54 55 56 56 55 54 55 56 58 63 68 72 73 75 79
60 58 52 47 39 30 23 16 10 5 4 11 18 25 28 31 34 37 43 48 51 51 50 50 49 48 48 48 50 51 51 52 53 53 54 56 60 63 67 69 71 74 78
55 48 41 33 26 20 14 7 1 7 12 17 22 27 31 33 36 41 44 45 46 46 47 49 49 49 48 48 48 49 51 52 52 53 54 56 58 61 64 68 73 79 82
43 37 28 23 17 10 3 4 8 12 16 20 22 24 26 34 37 39 40 40 42 43 45 46 46 45 44 44 45 47 49 50 49 51 53 55 57 60 64 72 78 81 85
29 24 18 12 7 3 5 8 12 14 15 17 20 23 27 30 34 37 39 39 38 38 40 43 45 44 42 42 43 45 46 48 48 50 51 51 55 62 70 76 80 84 86
17 12 8 6 5 5 7 10 11 13 17 20 23 25 27 30 32 35 36 37 38 39 38 39 40 38 36 36 37 40 45 45 45 45 47 52 59 67 73 81 88 92 93
8 6 6 6 6 8 9 11 13 15 18 20 23 24 26 29 32 33 34 35 35 34 33 33 34 36 36 36 36 37 39 39 38 36 44 55 64 69 75 83 90 94 98
6 7 6 7 8 9 10 11 14 16 19 21 23 25 27 27 29 30 31 32 32 32 32 33 35 36 37 37 36 36 34 30 30 37 46 54 61 68 77 85 90 94 99
6 6 8 9 9 10 11 13 15 17 19 21 23 24 26 27 29 30 30 32 33 34 35 35 35 36 37 35 31 28 28 30 35 37 46 61 64 70 81 85 83 90 95
Wind_Direction_500mb
213 211 211 211 213 213 213 213 213 215 215 212 211 211 212 213 214 216 218 223 228 234 240 249 259 266 274 282 288 292 293 293 291 295 297 301 301 302 303 303 303 304 304
214 212 212 212 212 213 213 212 214 215 215 214 213 213 215 217 218 221 225 229 236 243 249 255 263 271 278 284 288 291 292 292 293 295 299 301 302 305 305 304 303 302 301
214 212 212 212 212 213 213 212 215 215 215 214 215 218 219 221 222 225 229 235 241 249 256 264 271 277 282 287 289 290 290 291 291 292 296 300 303 309 310 307 306 304 301
214 213 214 213 212 213 214 214 216 217 218 217 218 220 221 222 224 227 232 239 247 254 262 268 274 279 286 289 289 291 293 293 295 298 302 304 305 308 306 306 306 305 302
213 212 214 214 213 213 214 215 216 217 217 217 218 218 220 222 226 231 237 245 252 259 265 272 277 282 284 287 291 294 296 298 300 301 301 306 311 311 308 306 303 303 302
214 213 212 211 211 212 213 213 213 212 212 213 214 217 221 224 228 233 240 246 254 261 267 273 277 281 284 289 291 294 297 300 300 300 300 299 307 309 302 301 301 302 304
213 211 209 208 208 209 209 209 209 208 208 209 212 216 219 222 227 234 243 251 257 262 266 270 274 282 289 292 295 295 295 295 297 299 299 303 295 297 302 304 304 301 300
211 208 206 205 203 202 203 203 203 205 205 206 207 211 214 217 229 236 243 248 254 259 265 275 283 289 293 296 296 296 298 299 300 299 295 296 300 301 299 297 297 299 300
207 205 204 202 198 198 198 200 201 200 197 199 201 203 206 211 229 234 236 242 253 264 273 280 288 293 296 296 298 305 304 303 305 305 300 296 300 303 301 303 303 306 305
201 201 201 198 198 196 197 195 193 193 194 192 192 194 199 205 221 231 231 243 258 272 284 295 296 297 301 307 317 307 300 304 310 306 300 300 302 305 305 305 305 303 302
193 195 195 193 194 195 191 188 187 186 185 183 184 182 188 195 206 223 232 255 278 289 296 293 297 304 309 316 305 293 300 309 296 295 300 304 308 311 313 312 308 304 304
185 187 185 183 184 183 185 179 178 177 174 171 173 173 177 187 199 220 257 283 293 299 297 298 306 315 308 302 299 298 306 292 294 302 307 311 313 314 314 314 312 312 310
177 175 173 172 171 171 174 169 166 166 167 164 166 167 171 183 213 264 299 295 296 296 300 309 308 306 307 302 309 307 297 303 307 310 312 312 313 314 314 314 315 316 314
166 161 160 160 158 158 158 157 158 157 159 159 161 165 174 205 290 304 297 296 301 308 316 314 308 303 304 304 305 307 309 310 311 312 312 311 313 315 316 319 320 320 319
156 153 152 151 150 147 144 144 147 144 150 152 154 159 203 295 302 292 304 312 319 321 309 297 302 306 308 310 311 311 311 312 313 313 312 313 315 317 319 321 321 321 318
150 148 147 147 146 146 145 134 136 139 145 147 155 281 300 289 290 303 314 324 319 313 302 307 310 312 313 315 316 317 319 319 318 316 316 318 319 320 320 321 321 322 320
149 147 146 143 140 138 136 136 137 136 135 92 319 299 299 303 308 315 331 304 304 309 314 314 315 316 317 319 320 320 319 318 318 319 321 321 321 320 321 323 325 323 319
144 140 140 138 137 135 133 131 125 107 79 302 304 305 306 312 319 329 320 314 314 314 317 320 321 321 322 321 320 319 318 320 322 323 321 322 323 324 323 322 323 323 321
139 137 137 136 134 132 125 121 137 170 271 302 310 315 315 321 321 321 320 322 326 327 325 322 322 322 321 321 322 320 318 321 323 322 323 324 324 323 322 324 324 324 325
138 136 136 132 125 128 135 143 249 316 320 323 326 327 324 325 329 334 336 334 331 328 327 326 327 326 324 323 321 321 320 322 324 324 323 323 324 324 325 327 327 327 326
138 132 127 131 132 128 108 348 335 335 336 333 332 330 336 340 339 337 336 336 335 334 331 328 326 326 326 324 322 321 321 322 323 325 325 326 327 328 329 328 328 328 327
128 131 129 123 105 59 10 355 346 337 332 336 342 345 343 340 340 342 344 342 339 336 334 331 332 331 330 325 323 321 321 323 327 326 325 327 328 330 331 330 330 330 331
129 121 110 85 56 28 359 344 340 342 346 348 347 345 343 342 343 346 345 343 343 342 340 336 331 331 328 325 323 322 322 325 326 327 328 329 329 331 331 331 334 336 336
106 90 71 53 23 3 352 350 351 348 345 342 340 339 340 344 344 345 345 344 344 342 337 334 333 332 330 329 327 324 322 325 325 328 326 327 329 332 335 337 337 337 335
78 56 36 16 359 355 354 349 345 342 338 336 336 339 340 338 337 342 342 339 337 336 337 335 333 331 330 329 327 325 326 328 326 323 322 323 328 335 339 336 335 334 334
54 23 5 360 354 352 350 347 341 334 332 333 332 328 329 333 335 333 330 331 333 334 335 336 334 329 328 328 328 331 333 329 323 321 325 329 328 332 333 332 334 335 337
Wind_Speed_850mb
86 84 83 80 73 66 62 57 54 51 48 45 43 41 39 37 34 31 28 25 24 21 19 18 18 17 19 22 24 26 29 33 42 51 52 54 61 65 69 70 73 76 78
87 84 83 80 75 71 66 61 58 55 49 45 45 43 40 38 35 32 29 26 24 22 21 20 20 22 24 25 28 31 34 37 44 56 60 63 67 70 73 74 74 75 79
86 83 82 81 79 75 69 64 60 55 51 49 46 43 41 39 36 33 30 27 25 24 24 24 24 27 28 31 34 37 40 45 49 57 66 66 66 65 72 75 76 78 83
86 84 83 82 79 75 70 66 62 55 52 48 45 43 42 38 36 34 31 29 28 27 27 27 30 33 35 37 39 42 45 49 53 57 62 66 67 67 69 78 87 83 84
86 85 82 78 75 72 70 66 61 55 51 47 45 45 41 40 38 34 32 31 31 31 32 33 35 35 37 39 41 43 46 49 51 55 61 65 66 65 72 76 83 89 93
86 84 78 74 74 72 68 65 60 55 52 50 47 44 43 40 37 34 34 34 35 34 35 34 35 37 38 38 41 42 44 46 50 51 56 59 68 56 58 64 77 94 109
83 79 77 74 72 69 65 61 59 56 54 52 49 46 43 40 37 36 38 36 33 32 32 33 35 36 37 39 41 44 47 47 46 45 51 46 47 56 74 89 90 95 111
79 78 78 75 72 69 65 62 61 57 52 49 49 45 41 37 39 36 32 30 30 30 30 32 33 35 37 40 45 49 50 52 52 50 55 63 65 64 68 80 92 102 109
75 75 77 76 75 73 70 66 61 56 53 51 46 43 39 36 35 32 27 26 26 25 27 29 32 35 37 42 46 50 55 60 62 65 64 59 68 67 73 85 90 87 96
72 73 74 73 73 73 69 64 59 54 52 48 46 40 38 33 28 25 20 18 19 21 26 31 36 41 41 41 42 48 63 70 71 69 78 82 81 85 77 69 68 73 77
69 70 68 67 67 66 63 58 56 54 50 47 43 39 32 26 17 14 12 12 18 23 30 38 42 43 44 36 37 51 62 59 71 78 83 88 85 80 75 68 63 64 77
58 60 61 61 61 60 59 57 52 50 48 45 40 36 29 22 15 9 9 13 22 32 40 44 46 43 40 44 48 54 55 58 72 82 84 83 79 75 74 73 75 76 73
54 55 56 57 57 55 55 56 54 50 47 44 38 32 26 19 13 11 13 22 31 34 43 44 41 42 44 52 63 45 58 74 75 75 76 75 73 73 74 79 78 76 79
60 61 61 62 62 59 55 53 50 47 43 38 32 24 15 7 7 15 24 32 38 45 51 56 61 57 68 63 67 67 66 67 67 67 69 70 70 73 75 71 76 80 85
66 67 67 65 63 61 55 50 46 41 31 26 19 11 3 8 12 23 29 36 40 43 48 62 68 68 68 69 68 67 66 64 64 61 62 65 68 69 70 71 74 79 81
71 72 71 71 68 64 59 55 41 34 25 15 6 4 10 19 27 32 34 34 34 33 51 59 62 64 66 66 66 65 62 60 58 59 61 62 64 66 70 72 72 74 79
69 71 69 65 61 55 47 40 34 25 12 2 7 13 20 27 33 36 30 30 43 51 55 58 58 59 59 59 59 59 61 58 58 56 56 58 59 63 65 71 76 77 81
65 65 61 56 50 44 36 27 18 10 3 5 13 20 26 30 32 26 26 49 48 49 52 54 54 54 54 54 54 55 56 56 55 54 55 56 58 63 68 72 73 75 79
60 58 52 47 39 30 23 16 10 5 4 11 18 25 28 31 34 37 43 48 51 51 50 50 49 48 48 48 50 51 51 52 53 53 54 56 60 63 67 69 71 74 78
55 48 41 33 26 20 14 7 1 7 12 17 22 27 31 33 36 41 44 45 46 46 47 49 49 49 48 48 48 49 51 52 52 53 54 56 58 61 64 68 73 79 82
43 37 28 23 17 10 3 4 8 12 16 20 22 24 26 34 37 39 40 40 42 43 45 46 46 45 44 44 45 47 49 50 49 51 53 55 57 60 64 72 78 81 85
29 24 18 12 7 3 5 8 12 14 15 17 20 23 27 30 34 37 39 39 38 38 40 43 45 44 42 42 43 45 46 48 48 50 51 51 55 62 70 76 80 84 86
17 12 8 6 5 5 7 10 11 13 17 20 23 25 27 30 32 35 36 37 38 39 38 39 40 38 36 36 37 40 45 45 45 45 47 52 59 67 73 81 88 92 93
8 6 6 6 6 8 9 11 13 15 18 20 23 24 26 29 32 33 34 35 35 34 33 33 34 36 36 36 36 37 39 39 38 36 44 55 64 69 75 83 90 94 98
6 7 6 7 8 9 10 11 14 16 19 21 23 25 27 27 29 30 31 32 32 32 32 33 35 36 37 37 36 36 34 30 30 37 46 54 61 68 77 85 90 94 99
6 6 8 9 9 10 11 13 15 17 19 21 23 24 26 27 29 30 30 32 33 34 35 35 35 36 37 35 31 28 28 30 35 37 46 61 64 70 81 85 83 90 95
Wind_Direction_850mb
213 211 211 211 213 213 213 213 213 215 215 212 211 211 212 213 214 216 218 223 228 234 240 249 259 266 274 282 288 292 293 293 291 295 297 301 301 302 303 303 303 304 304
214 212 212 212 212 213 213 212 214 215 215 214 213 213 215 217 218 221 225 229 236 243 249 255 263 271 278 284 288 291 292 292 293 295 299 301 302 305 305 304 303 302 301
214 212 212 212 212 213 213 212 215 215 215 214 215 218 219 221 222 225 229 235 241 249 256 264 271 277 282 287 289 290 290 291 291 292 296 300 303 309 310 307 306 304 301
214 213 214 213 212 213 214 214 216 217 218 217 218 220 221 222 224 227 232 239 247 254 262 268 274 279 286 289 289 291 293 293 295 298 302 304 305 308 306 306 306 305 302
213 212 214 214 213 213 214 215 216 217 217 217 218 218 220 222 226 231 237 245 252 259 265 272 277 282 284 287 291 294 296 298 300 301 301 306 311 311 308 306 303 303 302
214 213 212 211 211 212 213 213 213 212 212 213 214 217 221 224 228 233 240 246 254 261 267 273 277 281 284 289 291 294 297 300 300 300 300 299 307 309 302 301 301 302 304
213 211 209 208 208 209 209 209 209 208 208 209 212 216 219 222 227 234 243 251 257 262 266 270 274 282 289 292 295 295 295 295 297 299 299 303 295 297 302 304 304 301 300
211 208 206 205 203 202 203 203 203 205 205 206 207 211 214 217 229 236 243 248 254 259 265 275 283 289 293 296 296 296 298 299 300 299 295 296 300 301 299 297 297 299 300
207 205 204 202 198 198 198 200 201 200 197 199 201 203 206 211 229 234 236 242 253 264 273 280 288 293 296 296 298 305 304 303 305 305 300 296 300 303 301 303 303 306 305
201 201 201 198 198 196 197 195 193 193 194 192 192 194 199 205 221 231 231 243 258 272 284 295 296 297 301 307 317 307 300 304 310 306 300 300 302 305 305 305 305 303 302
193 195 195 193 194 195 191 188 187 186 185 183 184 182 188 195 206 223 232 255 278 289 296 293 297 304 309 316 305 293 300 309 296 295 300 304 308 311 313 312 308 304 304
185 187 185 183 184 183 185 179 178 177 174 171 173 173 177 187 199 220 257 283 293 299 297 298 306 315 308 302 299 298 306 292 294 302 307 311 313 314 314 314 312 312 310
177 175 173 172 171 171 174 169 166 166 167 164 166 167 171 183 213 264 299 295 296 296 300 309 308 306 307 302 309 307 297 303 307 310 312 312 313 314 314 314 315 316 314
166 161 160 160 158 158 158 157 158 157 159 159 161 165 174 205 290 304 297 296 301 308 316 314 308 303 304 304 305 307 309 310 311 312 312 311 313 315 316 319 320 320 319
156 153 152 151 150 147 144 144 147 144 150 152 154 159 203 295 302 292 304 312 319 321 309 297 302 306 308 310 311 311 311 312 313 313 312 313 315 317 319 321 321 321 318
150 148 147 147 146 146 145 134 136 139 145 147 155 281 300 289 290 303 314 324 319 313 302 307 310 312 313 315 316 317 319 319 318 316 316 318 319 320 320 321 321 322 320
149 147 146 143 140 138 136 136 137 136 135 92 319 299 299 303 308 315 331 304 304 309 314 314 315 316 317 319 320 320 319 318 318 319 321 321 321 320 321 323 325 323 319
144 140 140 138 137 135 133 131 125 107 79 302 304 305 306 312 319 329 320 314 314 314 317 320 321 321 322 321 320 319 318 320 322 323 321 322 323 324 323 322 323 323 321
139 137 137 136 134 132 125 121 137 170 271 302 310 315 315 321 321 321 320 322 326 327 325 322 322 322 321 321 322 320 318 321 323 322 323 324 324 323 322 324 324 324 325
138 136 136 132 125 128 135 143 249 316 320 323 326 327 324 325 329 334 336 334 331 328 327 326 327 326 324 323 321 321 320 322 324 324 323 323 324 324 325 327 327 327 326
138 132 127 131 132 128 108 348 335 335 336 333 332 330 336 340 339 337 336 336 335 334 331 328 326 326 326 324 322 321 321 322 323 325 325 326 327 328 329 328 328 328 327
128 131 129 123 105 59 10 355 346 337 332 336 342 345 343 340 340 342 344 342 339 336 334 331 332 331 330 325 323 321 321 323 327 326 325 327 328 330 331 330 330 330 331
129 121 110 85 56 28 359 344 340 342 346 348 347 345 343 342 343 346 345 343 343 342 340 336 331 331 328 325 323 322 322 325 326 327 328 329 329 331 331 331 334 336 336
106 90 71 53 23 3 352 350 351 348 345 342 340 339 340 344 344 345 345 344 344 342 337 334 333 332 330 329 327 324 322 325 325 328 326 327 329 332 335 337 337 337 335
78 56 36 16 359 355 354 349 345 342 338 336 336 339 340 338 337 342 342 339 337 336 337 335 333 331 330 329 327 325 326 328 326 323 322 323 328 335 339 336 335 334 334
54 23 5 360 354 352 350 347 341 334 332 333 332 328 329 333 335 333 330 331 333 334 335 336 334 329 328 328 328 331 333 329 323 321 325 329 328 332 333 332 334 335 337